Change the Weather History Date:

Saturday, June 8, 2013

  Actual Average Record
Temperature  
Mean Temperature 58 °F 61 °F  
Max Temperature 65 °F 73 °F 77 °F (2008)
Min Temperature 50 °F 50 °F 42 °F (1999)
Degree Days  
Heating Degree Days 7    
Month to date heating degree days 49  
Since 1 June heating degree days 49  
Since 1 July heating degree days 2967  
Cooling Degree Days 0    
Month to date cooling degree days 0  
Year to date cooling degree days 6  
Since 1 June cooling degree days 0  
Growing Degree Days 7 (Base 50)    
Moisture  
Dew Point 51 °F    
Average Humidity 84    
Maximum Humidity 100    
Minimum Humidity 67    
Precipitation  
Precipitation 0.00 in - 0.03 in (1958)
Month to date precipitation 0.00  
Year to date precipitation 2.34  
Since 1 July precipitation 13.28  
Sea Level Pressure  
Sea Level Pressure 29.82 in    
Wind  
Wind Speed 6 mph (WSW)    
Max Wind Speed 16 mph    
Max Gust Speed 22 mph    
Visibility 5 miles    
Events Fog    
T = Trace of Precipitation, MM = Missing Value Source: NWS Daily Summary

Daily Weather History Graph

Daily Weather History Graph

Search for Another Location

Airport or City:

Trip Planner

Search our weather history database for the weather conditions in past years. The results will help you decide how hot, cold, wet, or windy it might be!

Date:

Astronomy

Jun. 08, 2013 Rise Set
Actual Time 5:47 AM PDT 8:25 PM PDT
Civil Twilight 5:16 AM PDT 8:55 PM PDT
Nautical Twilight 4:38 AM PDT 9:34 PM PDT
Astronomical Twilight 3:56 AM PDT 10:16 PM PDT
Moon 5:58 AM PDT (6/8) 8:33 PM PDT (6/8)
Length of Visible Light 15h 39m
Length of Day
14h 37m
New Moon, 0% of the Moon is Illuminated
Jun 8
New Moon
Jun 16
First Quarter
Jun 23
Full
Jun 29
Last Quarter
Jul 8
New

Hourly Weather History & Observations

Time (PDT) Temp. Dew Point Humidity Pressure Visibility Wind Dir Wind Speed Gust Speed Precip Events Conditions
12:31 AM 51.8 °F 50.0 °F 94% 29.80 in 1.5 mi Calm Calm - N/A   Overcast
12:46 AM 51.8 °F 50.0 °F 94% 29.80 in 3.0 mi Calm Calm - N/A   Overcast
12:53 AM 51.1 °F 50.0 °F 96% 29.81 in 6.0 mi Calm Calm - N/A   Overcast
12:58 AM 51.8 °F 50.0 °F 94% 29.80 in 1.8 mi Calm Calm - N/A   Overcast
1:06 AM 51.8 °F 50.0 °F 94% 29.80 in 0.8 mi Calm Calm - N/A   Mist
1:53 AM 51.1 °F 50.0 °F 96% 29.81 in 0.8 mi Calm Calm - N/A   Mist
2:10 AM 51.8 °F 50.0 °F 94% 29.80 in 1.2 mi Calm Calm - N/A   Overcast
2:20 AM 51.8 °F 50.0 °F 94% 29.80 in 1.5 mi Calm Calm - N/A   Overcast
2:26 AM 51.8 °F 50.0 °F 94% 29.80 in 0.8 mi Calm Calm - N/A   Mist
2:42 AM 51.8 °F 50.0 °F 94% 29.80 in 1.0 mi SW 3.5 mph - N/A   Mist
2:53 AM 51.1 °F 50.0 °F 96% 29.81 in 1.0 mi SSW 3.5 mph - N/A   Mist
3:23 AM 51.8 °F 50.0 °F 94% 29.80 in 0.8 mi Calm Calm - N/A   Mist
3:35 AM 51.8 °F 50.0 °F 94% 29.80 in 1.2 mi Calm Calm - N/A   Overcast
3:40 AM 51.8 °F 50.0 °F 94% 29.80 in 2.0 mi Calm Calm - N/A   Overcast
3:48 AM 51.8 °F 50.0 °F 94% 29.80 in 1.2 mi South 3.5 mph - N/A   Overcast
3:49 AM 51.1 °F 50.0 °F 96% 29.80 in 1.2 mi South 3.5 mph - N/A   Overcast
4:27 AM 50.0 °F 48.2 °F 94% 29.80 in 2.0 mi Calm Calm - N/A   Overcast
4:43 AM 50.0 °F 48.2 °F 94% 29.80 in 1.8 mi Calm Calm - N/A   Overcast
4:53 AM 50.0 °F 48.9 °F 96% 29.80 in 1.0 mi Calm Calm - N/A   Mist
5:49 AM 51.8 °F 48.2 °F 88% 29.80 in 0.8 mi Calm Calm - N/A   Mist
5:53 AM 51.1 °F 48.9 °F 92% 29.80 in 0.8 mi Calm Calm - N/A   Mist
6:19 AM 51.8 °F 50.0 °F 94% 29.80 in 1.0 mi Calm Calm - N/A   Mist
6:29 AM 51.8 °F 50.0 °F 94% 29.80 in 0.8 mi Calm Calm - N/A   Mist
6:35 AM 51.8 °F 50.0 °F 94% 29.80 in 1.5 mi Calm Calm - N/A   Overcast
6:42 AM 51.8 °F 50.0 °F 94% 29.80 in 3.0 mi Calm Calm - N/A   Overcast
6:49 AM 51.8 °F 51.8 °F 100% 29.80 in 1.8 mi West 3.5 mph - N/A   Overcast
6:53 AM 52.0 °F 51.1 °F 97% 29.80 in 1.0 mi Calm Calm - N/A   Overcast
7:05 AM 51.8 °F 51.8 °F 100% 29.80 in 0.8 mi Calm Calm - N/A   Mist
7:15 AM 51.8 °F 51.8 °F 100% 29.80 in 1.2 mi WSW 3.5 mph - N/A   Overcast
7:32 AM 51.8 °F 51.8 °F 100% 29.80 in 0.5 mi Calm Calm - N/A Fog Fog
7:41 AM 53.6 °F 51.8 °F 94% 29.80 in 1.5 mi Calm Calm - N/A   Overcast
7:44 AM 53.6 °F 51.8 °F 94% 29.80 in 3.0 mi West 4.6 mph - N/A   Overcast
7:53 AM 53.1 °F 51.1 °F 93% 29.80 in 5.0 mi Calm Calm - N/A   Overcast
8:53 AM 55.0 °F 51.1 °F 86% 29.80 in 10.0 mi Calm Calm - N/A   Overcast
9:23 AM 57.2 °F 51.8 °F 82% 29.80 in 10.0 mi Calm Calm - N/A   Overcast
9:53 AM 59.0 °F 52.0 °F 78% 29.80 in 10.0 mi Calm Calm - N/A   Overcast
10:53 AM 61.0 °F 52.0 °F 72% 29.81 in 10.0 mi SW 10.4 mph - N/A   Scattered Clouds
11:53 AM 63.0 °F 52.0 °F 67% 29.82 in 10.0 mi WSW 10.4 mph - N/A   Clear
12:53 PM 64.9 °F 53.1 °F 65% 29.83 in 10.0 mi WSW 11.5 mph - N/A   Clear
1:24 PM 62.6 °F 53.6 °F 72% 29.83 in 10.0 mi WSW 12.7 mph - N/A   Scattered Clouds
1:46 PM 64.4 °F 53.6 °F 68% 29.83 in 10.0 mi West 10.4 mph 20.7 mph N/A   Mostly Cloudy
1:53 PM 64.0 °F 53.1 °F 67% 29.83 in 10.0 mi SW 16.1 mph 20.7 mph N/A   Mostly Cloudy
2:53 PM 62.1 °F 53.1 °F 72% 29.83 in 10.0 mi WSW 11.5 mph 17.3 mph N/A   Overcast
3:53 PM 60.1 °F 53.1 °F 78% 29.84 in 10.0 mi West 10.4 mph 17.3 mph N/A   Overcast
4:53 PM 60.1 °F 53.1 °F 78% 29.84 in 10.0 mi West 10.4 mph - N/A   Overcast
5:43 PM 60.8 °F 53.6 °F 77% 29.83 in 10.0 mi West 9.2 mph 20.7 mph N/A   Overcast
5:53 PM 60.1 °F 53.1 °F 78% 29.83 in 10.0 mi West 11.5 mph 18.4 mph N/A   Overcast
6:53 PM 59.0 °F 53.1 °F 81% 29.83 in 10.0 mi West 11.5 mph 18.4 mph N/A   Overcast
7:43 PM 57.2 °F 53.6 °F 88% 29.84 in 10.0 mi WSW 9.2 mph 17.3 mph N/A   Overcast
7:53 PM 57.9 °F 53.1 °F 84% 29.84 in 10.0 mi WSW 11.5 mph - N/A   Overcast
8:53 PM 57.0 °F 53.1 °F 87% 29.87 in 10.0 mi WSW 5.8 mph - N/A   Overcast
9:53 PM 57.0 °F 54.0 °F 89% 29.88 in 9.0 mi West 5.8 mph - N/A   Overcast
10:53 PM 57.0 °F 54.0 °F 89% 29.88 in 10.0 mi West 6.9 mph - N/A   Overcast
11:13 PM 57.2 °F 53.6 °F 88% 29.88 in 10.0 mi West 6.9 mph - N/A   Overcast
11:24 PM 57.2 °F 53.6 °F 88% 29.88 in 10.0 mi West 6.9 mph - N/A   Overcast
11:53 PM 57.0 °F 54.0 °F 89% 29.88 in 9.0 mi West 4.6 mph - N/A   Overcast